Wetbulb
75.05 77.29 78.98 78.83 78.99 78.75 78.52 78.46 78.36 78.63 78.50 78.79 78.92 79.02 78.83 78.82 78.40 78.60 78.25 77.82 77.36 77.10 77.03 76.76 76.76 76.65 76.54 76.78 76.70 76.60 76.91 76.60 76.33 76.07 75.56 75.63 75.68 75.53 75.78 74.72 74.01 73.07 73.76
76.28 78.02 79.42 79.28 79.35 78.86 78.81 78.78 78.53 78.61 78.40 78.64 78.53 78.50 78.41 78.74 78.52 77.97 78.18 77.55 76.94 76.54 76.66 76.57 76.51 76.56 76.40 76.64 76.96 76.61 76.57 76.39 76.37 75.76 76.04 76.00 75.67 75.16 75.01 74.52 74.54 74.00 74.55
76.41 77.72 78.55 79.39 79.52 79.07 78.60 78.78 78.73 78.55 78.15 78.39 78.71 78.80 78.54 78.90 78.28 77.66 77.56 77.40 77.10 76.81 76.51 76.62 76.43 76.85 76.64 76.51 76.88 76.79 76.74 76.52 76.89 76.51 76.18 72.96 73.31 75.28 75.31 74.93 74.74 74.53 74.28
76.71 77.24 77.57 79.19 79.56 79.45 79.07 78.89 78.69 78.41 78.03 78.13 77.94 78.05 78.40 78.53 78.17 77.82 77.69 77.35 77.18 77.00 76.79 76.73 76.43 77.00 76.43 76.67 76.82 76.72 76.82 76.47 76.53 76.35 73.08 73.28 73.86 75.38 74.80 74.48 74.87 74.83 74.15
75.96 76.69 77.03 79.72 79.63 79.34 79.35 78.90 78.82 78.54 78.23 77.86 77.43 77.05 77.21 77.44 77.79 77.43 77.02 76.83 76.59 76.67 76.32 76.62 76.57 76.27 76.74 76.11 77.14 76.94 77.00 77.06 76.33 74.36 71.97 72.09 72.99 74.79 74.83 74.91 74.28 74.55 74.43
75.81 76.37 78.31 79.63 79.90 79.69 79.50 79.20 78.94 78.63 78.53 78.13 77.43 76.97 76.71 77.51 77.41 77.52 77.21 76.86 76.64 76.32 76.32 76.18 76.17 76.24 76.14 76.21 77.24 77.30 77.05 76.77 75.74 72.28 71.75 73.75 72.75 75.45 74.75 74.68 74.33 74.35 74.21
75.20 75.81 77.56 79.45 79.82 79.96 79.77 79.41 79.12 78.76 78.24 77.64 77.18 76.94 76.70 76.82 77.39 77.13 76.07 76.60 76.48 76.20 76.53 76.43 76.14 76.35 75.99 76.32 76.79 77.26 76.95 76.21 73.43 72.21 71.79 72.74 73.25 76.13 75.51 74.85 73.99 73.97 74.64
74.95 76.50 76.84 79.06 79.49 79.81 79.91 79.14 78.80 78.04 77.47 77.35 77.14 76.94 76.82 77.05 76.88 76.30 76.35 76.48 76.54 76.40 76.25 76.38 75.90 76.56 76.54 76.27 76.04 77.03 77.05 76.16 74.26 72.05 72.52 72.74 74.94 76.27 75.54 75.48 74.90 74.26 74.59
75.98 76.26 75.92 76.95 78.32 79.42 79.83 79.36 79.06 78.42 78.03 78.24 77.63 77.48 77.10 77.15 76.66 76.17 76.86 76.52 76.54 76.09 76.11 76.14 75.88 76.45 76.13 76.48 76.33 76.59 76.16 75.60 72.52 72.02 73.08 72.83 75.76 76.63 75.86 75.73 75.22 74.28 74.64
75.19 75.37 75.11 75.26 75.45 76.98 78.00 79.61 79.35 78.73 78.35 77.64 77.64 77.46 77.38 77.37 76.62 76.81 77.35 77.08 76.21 76.09 76.41 76.20 76.23 76.47 75.81 75.82 76.55 76.18 75.89 75.69 72.40 72.41 72.95 72.70 75.81 76.47 76.19 75.79 75.35 74.16 73.59
74.24 74.57 74.49 74.35 74.48 75.02 76.03 77.62 79.01 78.60 77.83 77.56 77.47 77.76 77.04 74.25 73.73 75.53 76.38 76.31 76.11 76.33 76.07 76.07 76.24 76.40 76.19 75.40 75.79 75.82 75.81 72.18 71.45 72.11 72.47 74.83 75.96 76.61 76.14 75.86 75.25 75.03 73.92
71.58 72.78 73.45 73.68 74.36 74.54 76.62 75.15 75.88 75.45 75.14 75.00 75.22 74.91 74.37 72.83 72.24 74.87 76.13 76.40 76.45 76.37 76.26 75.99 76.31 76.31 76.10 73.50 73.40 75.45 72.36 72.11 71.11 70.78 72.15 75.51 75.92 76.80 76.65 76.74 75.63 74.75 75.09
71.92 72.69 73.27 73.59 73.63 73.48 74.52 73.89 74.17 73.94 74.39 74.66 74.31 73.84 73.19 72.54 72.97 74.06 72.96 73.58 73.17 75.55 73.41 75.08 74.64 74.31 73.31 72.46 72.21 71.96 71.92 71.61 70.57 71.24 73.13 75.41 75.90 77.26 76.66 76.52 76.17 75.00 74.25
71.36 72.47 72.99 73.49 73.21 72.78 73.48 72.47 72.65 71.86 72.65 72.33 72.15 71.80 71.97 70.93 70.93 71.42 71.61 71.85 71.98 72.18 71.89 72.50 73.25 72.98 72.88 72.67 72.58 71.69 71.36 70.90 70.44 72.17 73.18 75.82 75.95 76.65 76.63 76.22 76.20 75.69 75.12
71.85 72.65 72.72 73.26 73.08 73.18 72.49 72.24 72.04 71.65 72.06 72.08 71.76 71.73 71.58 69.93 69.32 69.89 70.52 70.90 71.11 71.80 71.78 71.22 71.80 71.94 71.86 72.07 71.86 71.58 70.95 70.71 70.95 71.42 71.73 75.73 76.14 76.06 76.73 76.38 76.13 75.83 75.70
72.28 72.47 72.65 72.81 72.91 72.18 71.90 70.70 71.06 71.04 71.26 71.22 71.63 71.49 70.65 69.39 68.78 67.45 68.15 69.86 70.18 71.13 71.47 71.44 71.24 70.90 71.13 71.35 70.74 71.26 71.10 71.22 71.74 71.70 71.64 72.73 75.80 75.94 76.45 76.73 76.40 75.87 75.59
70.88 71.95 72.12 72.25 71.73 71.36 70.76 70.04 69.07 68.69 70.10 70.09 70.45 70.99 70.77 69.09 68.04 67.68 67.27 68.04 69.41 70.20 70.74 70.88 70.99 70.45 70.13 70.51 70.33 71.14 70.99 71.66 72.00 71.45 71.19 72.02 72.75 75.66 75.57 76.14 76.26 76.30 76.22
70.44 71.33 72.11 73.31 71.77 70.77 69.21 69.12 68.28 66.82 66.76 69.19 69.75 68.51 70.01 69.09 67.72 67.03 67.54 68.53 69.10 69.44 70.25 69.78 69.73 69.07 69.41 69.64 69.82 70.31 70.90 71.42 72.00 71.61 71.25 71.17 71.08 71.29 73.96 75.73 75.77 76.31 76.41
69.96 70.92 71.54 72.06 71.34 70.52 69.98 68.85 68.46 67.44 67.72 68.40 68.96 67.18 66.44 68.68 68.78 67.99 68.28 68.80 68.96 68.40 69.01 69.28 68.92 68.80 67.81 68.28 68.96 69.41 70.09 70.09 70.71 71.87 71.52 71.14 70.78 71.27 71.61 74.18 74.57 75.88 76.08
67.98 70.16 71.17 71.61 71.09 70.81 70.65 69.66 69.44 68.69 68.62 68.83 68.89 68.40 67.41 67.41 69.23 68.62 69.01 68.85 68.47 67.92 68.24 67.76 68.01 68.67 68.15 68.87 69.76 69.16 68.94 69.48 69.91 69.88 70.18 71.92 71.79 71.80 71.25 71.29 72.77 73.67 76.11
67.12 67.48 69.84 70.16 70.48 70.56 68.51 67.65 66.77 66.59 66.73 67.11 68.10 68.75 69.02 69.54 69.92 68.67 68.94 68.89 67.74 67.68 67.63 68.13 66.57 66.39 67.29 68.22 66.66 65.03 66.73 68.28 69.13 69.75 70.17 70.66 71.50 71.50 71.42 70.78 70.13 69.93 71.18
65.01 67.67 70.18 69.98 70.30 69.70 68.87 67.88 67.36 66.84 66.46 67.07 67.07 67.45 68.35 69.14 69.43 69.32 69.16 68.28 67.99 67.24 66.86 66.98 66.94 65.69 65.56 67.65 65.07 63.38 61.85 63.28 65.32 68.11 68.39 70.06 69.72 71.19 71.61 71.00 70.16 69.78 70.51
65.53 67.80 66.82 69.53 70.10 69.38 69.02 67.63 66.82 66.57 65.54 64.63 64.82 64.94 66.69 68.64 68.17 68.58 69.03 67.88 67.52 67.72 66.91 66.64 66.82 65.95 64.68 65.91 65.95 63.49 59.87 60.67 61.82 64.41 67.72 69.23 69.46 69.19 70.72 71.30 71.46 71.16 70.85
64.62 69.34 68.40 70.17 69.20 69.00 68.30 66.60 65.07 63.90 63.23 63.57 63.31 64.66 65.54 66.36 67.34 67.59 67.48 67.25 67.05 67.45 67.04 67.18 68.15 66.21 64.68 63.96 65.50 66.64 65.09 64.84 61.08 58.00 63.07 66.92 68.51 68.87 68.78 70.14 70.86 71.14 70.90
64.76 65.15 69.52 68.64 67.70 67.65 67.16 65.82 64.62 62.90 63.52 64.15 64.40 64.18 64.81 65.43 65.99 67.16 67.21 67.07 66.34 66.70 66.80 66.68 66.84 66.28 65.72 65.04 65.27 65.37 64.45 64.61 63.50 61.31 57.05 60.87 65.21 67.90 69.39 69.34 70.16 70.95 71.05
66.55 68.03 69.57 68.08 67.16 67.34 66.22 64.62 63.30 62.04 61.64 62.75 63.02 63.13 64.24 64.80 65.28 66.03 67.18 66.57 66.84 66.57 66.48 66.57 66.69 66.69 66.64 65.92 65.90 65.08 64.61 64.50 63.62 62.68 60.32 60.57 61.40 64.36 67.49 68.87 69.12 69.98 70.63
MSLP
1010.74 1010.80 1011.25 1011.60 1012.01 1012.32 1012.43 1012.59 1012.86 1013.00 1013.22 1013.43 1013.61 1013.88 1014.14 1014.33 1014.57 1014.56 1014.88 1015.04 1015.27 1015.47 1015.65 1015.72 1015.70 1015.83 1015.84 1015.89 1016.06 1016.34 1016.37 1016.70 1016.89 1017.10 1017.39 1017.56 1017.73 1017.93 1018.01 1018.19 1018.46 1018.62 1018.76
1010.02 1010.51 1010.94 1011.50 1011.92 1012.15 1012.31 1012.66 1013.01 1013.24 1013.53 1013.76 1013.94 1014.00 1014.31 1014.46 1014.70 1014.86 1014.97 1015.23 1015.51 1015.68 1015.84 1015.93 1015.91 1015.93 1015.97 1016.03 1016.38 1016.52 1016.72 1016.88 1017.08 1017.29 1017.51 1017.78 1017.96 1018.16 1018.27 1018.52 1018.74 1018.88 1019.08
1010.15 1010.62 1011.01 1011.30 1011.72 1012.19 1012.47 1012.79 1013.04 1013.32 1013.58 1013.92 1014.09 1014.17 1014.38 1014.59 1014.75 1014.86 1015.13 1015.29 1015.55 1015.76 1015.96 1016.07 1016.11 1016.14 1016.10 1016.12 1016.42 1016.68 1016.92 1017.07 1017.30 1017.44 1017.79 1018.17 1018.28 1018.33 1018.51 1018.75 1018.87 1019.14 1019.38
1010.14 1010.70 1011.01 1011.38 1011.74 1012.15 1012.61 1012.91 1013.16 1013.43 1013.78 1014.01 1014.27 1014.45 1014.64 1014.79 1014.90 1014.97 1015.14 1015.35 1015.60 1015.75 1016.03 1016.11 1016.22 1016.24 1016.25 1016.31 1016.46 1016.83 1017.07 1017.30 1017.47 1017.66 1018.07 1018.26 1018.29 1018.51 1018.65 1018.78 1018.99 1019.31 1019.62
1010.75 1011.04 1011.33 1011.61 1011.97 1012.32 1012.65 1013.09 1013.40 1013.57 1013.93 1014.13 1014.38 1014.66 1014.84 1014.98 1015.07 1015.17 1015.36 1015.47 1015.69 1015.66 1016.01 1016.17 1016.24 1016.43 1016.38 1016.55 1016.48 1017.05 1017.19 1017.42 1017.68 1018.02 1018.29 1018.38 1018.47 1018.57 1018.79 1019.08 1019.28 1019.47 1019.76
1011.05 1011.44 1011.72 1012.02 1012.25 1012.67 1012.91 1013.20 1013.56 1013.83 1013.92 1014.21 1014.43 1014.73 1014.95 1015.13 1015.29 1015.35 1015.47 1015.64 1015.73 1015.70 1015.94 1016.17 1016.28 1016.46 1016.53 1016.72 1016.81 1016.96 1017.40 1017.57 1017.85 1018.22 1018.40 1018.56 1018.59 1018.60 1018.81 1019.15 1019.41 1019.71 1019.88
1011.39 1011.71 1012.12 1012.23 1012.42 1012.67 1013.03 1013.33 1013.72 1013.99 1014.05 1014.33 1014.53 1014.72 1014.97 1015.27 1015.37 1015.48 1015.61 1015.72 1015.81 1015.77 1015.89 1016.08 1016.37 1016.36 1016.71 1016.88 1016.89 1017.11 1017.38 1017.65 1018.09 1018.39 1018.49 1018.61 1018.72 1018.71 1018.92 1019.15 1019.50 1019.87 1020.00
1011.61 1011.77 1012.18 1012.39 1012.57 1012.83 1013.09 1013.42 1013.83 1014.10 1014.22 1014.40 1014.61 1014.77 1015.00 1015.24 1015.40 1015.40 1015.59 1015.79 1015.85 1015.88 1016.05 1016.10 1016.21 1016.37 1016.67 1017.02 1017.05 1017.16 1017.28 1017.57 1018.03 1018.34 1018.53 1018.74 1018.81 1018.83 1018.98 1019.28 1019.56 1019.89 1020.12
1011.78 1011.90 1012.31 1012.69 1012.82 1012.99 1013.09 1013.43 1013.74 1014.01 1014.23 1014.36 1014.62 1014.85 1015.00 1015.24 1015.47 1015.62 1015.63 1015.64 1015.80 1015.98 1016.15 1016.17 1016.23 1016.45 1016.59 1016.98 1017.19 1017.28 1017.42 1017.54 1018.04 1018.31 1018.55 1018.82 1018.93 1018.91 1019.01 1019.34 1019.60 1019.95 1020.22
1012.69 1012.79 1012.78 1012.98 1012.84 1012.89 1013.20 1013.36 1013.60 1013.82 1014.09 1014.34 1014.53 1014.82 1015.08 1015.16 1015.36 1015.48 1015.61 1015.72 1015.79 1015.92 1016.11 1016.19 1016.32 1016.46 1016.65 1016.98 1017.10 1017.34 1017.53 1017.59 1018.00 1018.21 1018.51 1018.71 1018.83 1018.94 1019.07 1019.31 1019.57 1019.97 1020.31
1012.89 1012.98 1012.85 1013.36 1013.33 1013.41 1013.43 1013.34 1013.51 1013.69 1013.99 1014.33 1014.49 1014.66 1014.99 1015.36 1015.51 1015.61 1015.68 1015.65 1015.71 1015.87 1015.91 1016.00 1016.32 1016.45 1016.78 1017.01 1017.16 1017.21 1017.45 1017.79 1017.97 1018.11 1018.32 1018.48 1018.69 1018.91 1019.12 1019.32 1019.59 1019.88 1020.27
1012.95 1013.26 1013.25 1013.34 1013.31 1013.49 1013.47 1013.39 1013.54 1013.76 1014.13 1014.35 1014.57 1014.72 1015.10 1015.47 1015.78 1015.81 1015.74 1015.73 1015.71 1015.79 1015.84 1015.89 1016.15 1016.41 1016.51 1017.03 1017.23 1017.22 1017.52 1017.79 1017.90 1018.03 1018.21 1018.35 1018.63 1018.87 1019.02 1019.26 1019.61 1019.88 1020.19
1012.64 1013.02 1013.06 1013.19 1013.27 1013.65 1013.54 1013.52 1013.66 1013.85 1014.06 1014.32 1014.41 1014.59 1014.93 1015.25 1015.53 1015.70 1015.84 1015.76 1015.82 1015.75 1015.87 1015.83 1016.04 1016.36 1016.61 1017.05 1017.28 1017.46 1017.58 1017.70 1017.87 1018.00 1018.07 1018.20 1018.54 1018.78 1018.96 1019.12 1019.54 1019.85 1020.12
1012.65 1012.74 1013.02 1013.02 1013.11 1013.50 1013.69 1013.81 1013.75 1013.65 1013.96 1014.20 1014.35 1014.68 1014.96 1015.43 1015.55 1015.65 1015.71 1015.71 1015.83 1015.93 1016.07 1016.11 1016.09 1016.31 1016.64 1017.03 1017.27 1017.43 1017.60 1017.67 1017.80 1017.94 1017.81 1017.85 1018.40 1018.74 1018.87 1019.00 1019.29 1019.69 1020.02
1012.31 1012.54 1012.70 1012.79 1012.78 1012.98 1013.49 1013.68 1013.77 1013.73 1013.83 1014.03 1014.37 1014.50 1014.88 1015.22 1015.55 1015.49 1015.59 1015.69 1015.77 1015.99 1016.00 1016.20 1016.18 1016.30 1016.41 1016.74 1017.20 1017.35 1017.53 1017.60 1017.56 1017.70 1017.74 1017.70 1018.04 1018.47 1018.77 1019.06 1019.15 1019.46 1019.74
1011.91 1012.31 1012.31 1012.67 1012.67 1012.50 1013.27 1013.68 1013.67 1013.54 1013.76 1014.00 1014.11 1014.37 1014.73 1015.08 1015.29 1015.60 1015.64 1015.62 1015.71 1015.78 1015.88 1015.95 1016.09 1016.15 1016.30 1016.57 1016.84 1017.12 1017.23 1017.32 1017.42 1017.43 1017.63 1017.70 1017.64 1018.02 1018.36 1018.72 1018.98 1019.27 1019.46
1011.60 1012.24 1012.46 1012.36 1012.74 1013.01 1013.21 1013.33 1013.40 1013.58 1013.81 1014.08 1014.14 1014.27 1014.39 1014.57 1014.92 1015.23 1015.46 1015.67 1015.52 1015.61 1015.73 1015.88 1015.87 1016.12 1016.36 1016.38 1016.78 1016.67 1016.82 1016.98 1017.11 1017.27 1017.40 1017.43 1017.56 1017.74 1018.09 1018.32 1018.53 1018.94 1019.18
1012.04 1011.96 1012.62 1012.59 1012.43 1013.01 1013.35 1013.35 1013.35 1013.59 1013.70 1013.77 1013.92 1014.07 1014.16 1014.31 1014.67 1014.98 1015.22 1015.30 1015.21 1015.46 1015.74 1015.92 1015.90 1016.20 1016.44 1016.52 1016.60 1016.63 1016.73 1016.61 1016.71 1017.02 1017.04 1017.31 1017.65 1017.78 1017.87 1018.02 1018.36 1018.50 1018.75
1012.23 1012.32 1012.25 1012.56 1012.49 1012.67 1013.02 1013.45 1013.33 1013.40 1013.46 1013.37 1013.62 1013.85 1013.85 1014.01 1014.21 1014.58 1014.80 1014.76 1014.94 1015.38 1015.65 1015.77 1015.96 1016.01 1016.46 1016.48 1016.55 1016.61 1016.65 1016.64 1016.62 1016.68 1016.92 1017.18 1017.43 1017.62 1017.89 1017.83 1018.00 1018.30 1018.41
1011.62 1012.63 1012.12 1012.27 1012.49 1012.51 1012.90 1013.31 1013.54 1013.56 1013.46 1013.16 1013.38 1013.50 1013.61 1013.68 1013.69 1014.16 1014.24 1014.46 1014.67 1015.28 1015.60 1015.77 1015.74 1015.95 1016.22 1016.17 1016.30 1016.65 1016.71 1016.70 1016.64 1016.56 1016.85 1017.02 1017.22 1017.32 1017.48 1017.67 1017.83 1018.08 1018.08
1011.11 1012.57 1013.04 1012.20 1012.19 1012.75 1013.29 1013.75 1014.00 1013.89 1013.31 1013.18 1012.99 1012.88 1012.98 1013.14 1013.23 1013.71 1013.99 1014.16 1014.36 1014.91 1015.14 1015.34 1015.60 1015.90 1016.22 1016.15 1016.44 1016.96 1016.87 1016.79 1016.76 1016.51 1016.34 1016.57 1016.72 1016.87 1017.09 1017.33 1017.55 1017.68 1017.75
1011.64 1012.63 1012.77 1012.35 1012.11 1012.48 1012.94 1013.32 1013.63 1013.33 1013.07 1012.97 1012.93 1012.84 1012.77 1012.76 1012.88 1013.11 1013.36 1013.60 1013.85 1014.36 1014.83 1015.20 1015.45 1015.64 1016.02 1016.21 1016.53 1017.03 1017.33 1017.08 1016.63 1016.30 1016.37 1016.49 1016.50 1016.49 1016.69 1016.90 1017.07 1017.20 1017.37
1012.12 1012.66 1012.07 1012.34 1012.09 1012.52 1012.82 1013.31 1013.53 1013.43 1013.10 1013.05 1012.86 1012.88 1012.68 1012.46 1012.51 1012.78 1012.77 1012.99 1013.40 1013.83 1014.32 1014.71 1015.07 1015.36 1015.78 1015.99 1015.98 1016.39 1017.23 1017.16 1016.85 1016.37 1016.17 1016.21 1016.33 1016.44 1016.30 1016.44 1016.61 1016.72 1016.95
1012.71 1011.99 1012.57 1012.54 1012.35 1012.48 1012.75 1013.42 1013.58 1013.63 1013.69 1013.13 1013.08 1012.89 1012.79 1012.36 1012.28 1012.37 1012.46 1012.68 1013.04 1013.42 1013.84 1014.23 1014.62 1014.99 1015.48 1015.86 1016.19 1016.14 1016.15 1016.33 1016.89 1017.18 1016.56 1016.22 1016.10 1016.13 1016.18 1016.12 1016.17 1016.28 1016.52
1012.41 1013.02 1013.25 1012.99 1012.91 1012.93 1012.94 1013.27 1013.57 1013.69 1013.62 1013.24 1013.25 1013.13 1012.73 1012.26 1011.98 1011.99 1012.14 1012.51 1012.77 1013.10 1013.46 1013.91 1014.30 1014.63 1014.99 1015.30 1015.47 1015.87 1016.24 1016.47 1016.57 1016.95 1017.17 1016.73 1016.43 1015.78 1015.57 1015.58 1015.50 1015.78 1016.04
1011.71 1012.04 1012.65 1012.73 1012.81 1012.89 1013.41 1013.75 1013.74 1013.87 1013.77 1013.54 1013.41 1013.13 1012.66 1012.24 1011.88 1011.83 1011.83 1012.10 1012.35 1012.70 1013.17 1013.54 1013.90 1014.29 1014.58 1014.76 1015.02 1015.12 1015.50 1015.96 1016.44 1016.72 1016.91 1016.94 1016.68 1016.02 1015.08 1014.89 1015.29 1015.35 1015.60
Wind_Speed
9 9 15 18 17 17 18 18 17 17 17 16 17 17 17 17 16 17 16 16 15 14 12 11 11 9 9 12 14 14 17 16 17 17 16 16 15 16 15 16 15 11 15
14 12 17 17 17 17 18 18 17 17 18 17 16 17 17 16 16 16 15 14 13 12 11 10 9 9 10 12 13 15 17 17 16 17 16 15 16 15 15 15 14 12 15
15 13 13 17 17 17 16 16 17 17 17 17 16 17 17 16 16 16 14 13 13 11 11 10 8 9 11 12 14 16 17 16 15 16 16 5 6 15 15 15 15 14 14
15 12 12 17 17 17 16 16 16 16 17 16 15 15 15 15 14 15 15 13 12 11 9 10 9 10 12 13 15 15 17 16 16 15 6 5 7 14 14 14 15 13 14
12 11 12 17 17 17 16 15 15 15 15 16 15 14 13 13 13 13 12 12 11 11 9 9 9 8 11 12 16 15 15 15 15 11 5 5 5 11 14 14 13 12 13
11 9 13 16 16 16 16 15 15 14 14 14 15 13 12 11 11 11 10 8 8 9 9 8 8 7 9 11 15 15 14 14 14 6 5 7 5 13 14 14 13 11 13
11 8 10 15 16 16 16 16 15 14 14 14 14 13 12 11 11 10 8 6 6 6 8 8 8 8 7 9 13 15 14 14 6 4 4 5 5 13 15 14 14 11 12
11 9 8 13 15 15 16 16 15 15 15 14 14 13 12 11 11 10 9 7 6 5 6 6 7 8 8 8 10 13 13 13 6 4 5 4 9 13 14 14 14 12 11
10 10 7 7 11 15 15 16 16 16 15 14 14 13 13 12 10 9 8 7 6 6 5 6 7 8 7 10 10 10 11 11 5 4 5 4 12 14 15 15 14 13 11
6 5 4 4 5 7 9 16 17 16 16 16 15 14 12 12 11 10 8 7 7 7 7 6 7 7 7 6 10 10 10 11 5 5 4 4 13 14 15 15 14 13 12
4 5 6 4 4 3 5 10 14 17 17 17 15 15 11 3 5 8 8 9 9 8 7 7 7 7 8 6 9 11 11 3 4 3 3 10 14 15 16 16 14 14 13
5 5 5 6 5 5 5 5 5 6 4 5 5 6 4 4 3 4 7 9 9 9 8 7 7 7 7 3 2 8 3 4 3 3 3 12 15 16 16 15 15 15 14
8 5 6 6 4 4 4 3 2 2 3 3 5 5 5 4 4 3 2 2 2 7 2 5 4 3 4 3 3 2 4 4 3 3 6 13 16 16 18 16 16 16 15
8 8 6 7 7 6 3 3 3 3 3 3 3 5 4 2 3 3 3 3 3 2 3 3 2 3 4 5 4 4 4 3 3 3 5 12 15 16 17 18 17 16 16
8 8 9 8 8 7 5 3 4 3 3 3 4 5 4 4 4 4 4 3 3 3 4 4 4 4 4 4 5 5 5 5 5 3 3 14 15 16 15 17 17 17 17
8 8 9 10 9 8 6 5 4 4 4 4 4 5 6 4 4 4 4 4 4 4 4 4 4 4 4 3 5 6 6 5 5 5 3 5 16 15 15 16 17 17 17
6 7 10 9 6 7 7 6 5 4 4 4 4 5 6 6 6 6 4 4 4 4 4 3 4 2 2 3 4 4 5 6 5 5 4 4 5 13 15 15 17 17 17
4 8 6 6 7 6 5 5 4 4 4 4 4 4 6 6 6 5 4 4 4 3 4 3 3 3 3 4 3 4 3 4 5 6 5 3 3 2 9 15 17 17 17
7 4 7 7 7 7 6 4 4 5 4 5 4 4 6 6 7 5 5 5 4 4 3 3 3 3 3 3 4 3 3 3 4 5 6 6 5 6 6 13 18 17 19
4 7 8 6 7 7 3 2 1 3 4 3 5 5 6 6 8 7 6 6 5 4 4 3 4 3 2 4 2 2 2 3 3 4 4 6 9 9 6 6 6 8 17
5 8 10 8 7 4 2 1 2 4 3 3 4 6 7 8 9 9 7 6 5 6 6 5 3 4 4 2 4 2 1 3 4 4 3 4 5 6 6 7 6 4 3
1 7 8 6 6 5 3 1 2 3 3 2 1 4 5 5 6 8 9 8 7 4 5 5 4 3 1 3 4 2 1 4 3 3 3 4 6 4 6 8 8 8 5
10 10 8 10 6 3 4 1 1 2 2 2 2 3 4 5 5 6 7 6 7 6 6 5 5 6 4 4 3 5 2 4 1 2 2 4 5 4 5 6 7 8 7
8 7 16 8 4 4 5 2 2 0 3 2 2 3 5 5 5 6 6 6 6 6 6 6 6 4 4 4 1 3 1 4 3 2 3 3 4 5 6 5 6 7 7
8 9 8 5 3 4 4 3 2 1 3 3 4 5 6 5 5 6 6 6 6 5 5 6 5 5 4 4 3 3 1 2 2 2 3 3 3 4 5 6 5 6 8
6 8 6 7 4 5 4 2 1 1 4 4 4 4 4 4 3 5 5 5 6 5 5 5 5 6 6 4 3 4 4 4 3 3 2 2 4 4 4 4 4 5 5
Wind_Direction
165 155 149 140 138 136 132 127 126 124 122 115 116 118 119 124 126 125 129 132 136 137 138 136 131 129 127 121 132 130 124 126 124 124 125 122 123 119 114 115 114 114 112
143 154 152 146 145 142 138 134 132 131 130 129 127 126 131 130 131 130 131 136 141 142 140 138 132 135 130 133 131 130 128 128 130 129 128 129 127 121 117 120 125 119 122
147 155 155 151 151 146 141 137 137 138 136 137 137 136 135 136 139 135 136 137 143 144 145 139 132 138 136 137 135 136 133 133 133 134 127 124 131 128 126 128 127 123 120
147 154 157 157 154 149 149 148 145 142 143 141 138 138 139 136 133 134 135 136 139 139 144 138 134 137 136 137 139 141 138 137 139 130 120 140 135 133 131 134 124 127 125
150 157 163 161 158 156 155 154 152 148 147 144 140 138 141 142 136 134 136 138 145 142 145 144 140 146 137 142 141 144 143 141 138 134 115 117 128 135 135 131 140 134 131
148 157 168 164 162 164 162 159 158 157 151 146 143 143 144 146 142 138 139 148 149 151 153 157 153 144 145 146 146 147 149 148 139 131 127 139 135 143 143 141 137 141 139
146 152 167 168 169 170 168 165 164 162 155 153 151 151 152 156 153 146 148 146 155 160 170 170 176 150 154 152 152 152 155 157 138 155 163 148 158 151 149 148 142 150 149
146 145 163 171 172 172 170 168 165 165 164 164 162 160 161 164 162 159 161 160 165 160 177 185 178 167 162 162 159 160 163 161 142 175 158 150 172 158 157 148 150 153 152
155 149 158 168 173 171 170 169 170 170 172 170 169 170 170 170 171 173 166 165 167 170 181 192 193 173 183 168 168 173 164 153 138 145 142 159 174 170 160 156 158 158 160
143 148 138 169 164 161 168 170 174 173 174 176 176 177 179 178 179 182 169 171 180 184 182 191 204 184 181 188 169 180 172 153 134 128 160 178 176 178 166 165 163 164 170
136 167 155 148 133 144 161 178 176 175 178 183 182 181 182 165 192 194 184 191 186 194 190 194 210 200 181 202 187 181 182 150 157 161 171 189 179 183 177 173 172 173 175
166 187 175 164 167 170 187 185 165 171 172 175 176 180 147 158 200 202 202 210 208 200 197 203 207 216 189 166 207 190 136 173 175 182 182 194 187 187 183 178 177 181 181
177 176 177 170 178 181 202 181 155 164 168 172 178 169 164 162 196 206 213 236 229 222 225 187 205 213 164 154 168 193 175 176 193 212 202 202 189 191 191 181 183 187 190
174 183 182 183 171 193 202 205 180 193 159 179 184 177 150 170 204 215 214 210 199 211 208 203 176 199 199 171 173 186 199 197 200 211 199 190 193 199 197 188 187 194 196
180 191 196 187 185 186 188 179 182 190 186 180 175 174 172 180 189 183 210 200 196 200 196 206 191 192 211 196 176 180 202 211 216 184 206 210 197 201 199 195 194 200 203
188 198 189 197 196 175 185 191 202 189 188 183 184 187 193 194 182 197 207 226 212 197 210 197 201 190 205 202 225 183 194 199 204 206 204 215 200 198 196 201 201 207 208
177 193 201 193 185 188 189 192 189 200 178 201 213 209 199 187 193 194 197 217 227 212 221 208 193 188 227 208 237 222 187 189 190 207 202 211 217 202 205 206 203 207 211
213 181 200 208 172 191 205 201 191 205 198 211 213 209 206 205 199 203 207 212 209 202 207 196 179 187 195 211 214 236 224 184 184 202 206 177 194 231 230 214 211 209 211
338 198 184 193 185 184 194 221 207 211 214 207 210 209 212 209 202 197 202 224 190 194 215 201 196 164 186 216 211 234 238 219 192 182 205 206 207 224 219 222 215 212 213
321 305 200 184 190 182 169 142 269 228 243 210 214 213 210 216 212 208 206 213 182 183 213 210 195 174 192 204 200 221 236 239 230 209 193 190 205 207 203 210 211 217 219
190 320 258 181 186 146 105 168 228 231 215 249 237 223 210 211 207 204 214 211 188 186 201 203 204 183 209 178 78 303 313 290 252 228 197 209 199 204 190 196 203 211 240
182 299 276 237 180 180 138 160 250 254 258 240 243 269 259 237 203 199 205 197 191 175 184 195 183 169 198 174 147 137 317 321 315 252 207 209 219 201 206 203 201 205 203
136 271 260 282 207 151 127 102 318 311 329 327 291 274 246 227 222 218 209 202 187 181 190 191 180 176 187 215 195 137 131 223 321 330 264 218 215 210 213 203 209 209 201
130 188 251 255 174 138 141 149 192 268 282 270 282 294 284 250 234 226 213 197 189 186 191 195 186 181 146 187 140 213 171 143 167 326 317 286 228 215 214 204 209 214 206
159 165 252 197 155 145 118 115 101 289 283 313 311 294 285 278 241 225 204 187 188 179 193 182 170 182 177 167 182 143 150 205 107 136 235 301 310 243 213 205 195 202 206
139 155 163 163 139 98 96 70 94 306 304 319 299 296 306 292 271 224 201 188 184 179 184 192 188 184 199 204 169 190 167 162 179 173 185 257 235 247 212 175 190 197 198